Terminal Aerodrome Forecast
Issued by NWS

Home | Current Version | Previous Version | Text Only | Print | Product List | Glossary On
Versions: 1 2 3 4 5 6 7 8 9 10 11 12 13 14 15 16 17 18 19 20 21 22 23 24 25 26 27 28 29
000
FTUS44 KHGX 240200 AAA
TAFLBX
TAF AMD
KLBX 240200Z 2402/2424 15006KT P6SM SCT020 SCT050
      TEMPO 2402/2405 BKN022
     FM240500 17008KT 5SM BR SCT010
     FM240900 17007KT 6SM BR BKN009
     FM241400 19010KT P6SM SCT015
     FM241800 16014KT P6SM BKN025 BKN050=

USA.gov is the U.S. government's official web portal to all federal, state and local government web resources and services.